Location: *
(48.8780°N, 19.2358°E)
Time: 10:15:17
(UTC+00:00)

STARLINK-33 - Pass Details

Date: 18 October 2019
Orbit: 548 x 551 km, 53.0° (Epoch: 11 November)

Event Time Altitude Azimuth Distance (km) Brightness Sun altitude
Rises 17:08:05 0° 264° (W) 2,713 9.1 -13.8°
Reaches altitude 10° 17:10:22 10° 269° (W) 1,821 7.7 -14.2°
Maximum altitude 17:14:25 54° 347° (NNW) 673 4.1 -14.9°
Enters shadow 17:16:50 23° 58° (ENE) 1,211 4.9 -15.3°
